FW3268 Weather Reports


Display with metric or nautical units.
time (UTC)temp
F
wind
direction
speed
MPH
gust
MPH
rain 1hr
in
rain 24hr
in
rain mn
in
humidity
%
barometer
mb
20260831224502 88 258 4.0 7.0 0.00 0.00 0.00 67 1015.6
20260831221502 88 253 5.0 10.0 0.00 0.00 0.00 66 1015.8
20260831214502 88 190 6.0 13.0 0.00 0.00 0.00 66 1015.8
20260831213002 88 236 5.0 10.0 0.00 0.00 0.00 66 1015.9
20260831211502 88 264 6.0 11.0 0.00 0.00 0.00 65 1016.0
20260831210006 89 153 5.0 10.0 0.00 0.00 0.00 66 1016.0
20260831204501 88 244 5.0 12.0 0.00 0.00 0.00 66 1016.0
20260831203002 88 282 6.0 14.0 0.00 0.00 0.00 65 1016.0
20260831200005 89 248 6.0 12.0 0.00 0.00 0.00 63 1016.3
20260831193002 89 256 6.0 11.0 0.00 0.00 0.00 64 1016.9
20260831191502 89 278 7.0 14.0 0.00 0.00 0.00 63 1017.1
20260831190004 89 255 6.0 12.0 0.00 0.00 0.00 66 1017.4
20260831184502 88 271 6.0 13.0 0.00 0.00 0.00 66 1017.6
20260831181502 88 223 5.0 11.0 0.00 0.00 0.00 66 1017.8
20260831180004 86 255 7.0 14.0 0.00 0.00 0.00 67 1018.0
20260831171502 86 290 6.0 12.0 0.00 0.00 0.00 70 1018.1
20260831170004 84 295 4.0 9.0 0.00 0.00 0.00 75 1018.3
20260831164502 84 256 4.0 10.0 0.00 0.00 0.00 77 1018.4
20260831163001 83 229 4.0 8.0 0.00 0.00 0.00 79 1018.5
20260831161502 81 271 3.0 6.0 0.00 0.00 0.00 81 1018.6
20260831160006 81 271 3.0 6.0 0.00 0.00 0.00 80 1018.6
20260831154503 80 283 3.0 7.0 0.00 0.00 0.00 78 1018.6
20260831153002 80 250 3.0 6.0 0.00 0.00 0.00 80 1018.6
20260831151501 81 275 4.0 8.0 0.00 0.00 0.00 79 1018.4
20260831144502 80 200 4.0 8.0 0.00 0.00 0.00 82 1018.4
20260831141501 77 180 3.0 7.0 0.00 0.00 0.00 86 1018.1
20260831140006 76 183 3.0 8.0 0.00 0.00 0.00 86 1018.0
20260831133002 74 215 1.0 5.0 0.00 0.00 0.00 87 1018.1
20260831131502 73 174 1.0 4.0 0.00 0.00 0.00 89 1017.9
20260831130005 72 164 1.0 3.0 0.00 0.00 0.00 90 1017.8
20260831123002 71 167 1.0 3.0 0.00 0.00 0.00 91 1017.6
20260831121502 70 148 1.0 4.0 0.00 0.00 0.00 93 1017.4
20260831120004 68 129 1.0 2.0 0.00 0.00 0.00 94 1017.1
20260831114501 67 124 0.0 1.0 0.00 0.00 0.00 93 1017.2
20260831113000 67 124 2.0 3.0 0.00 0.00 0.00 93 1017.1
20260831110004 68 136 1.0 2.0 0.00 0.00 0.00 93 1017.1
20260831104501 68 135 1.0 2.0 0.00 0.00 0.00 93 1017.1
20260831103000 68 142 1.0 2.0 0.00 0.00 0.00 93 1017.1
20260831101500 69 152 0.0 1.0 0.00 0.00 0.00 93 1017.2
20260831100004 69 148 1.0 3.0 0.00 0.00 0.00 93 1017.0
20260831094501 69 161 1.0 3.0 0.00 0.00 0.00 92 1016.9
20260831093000 70 153 2.0 3.0 0.00 0.00 0.00 92 1017.0
20260831091501 70 134 1.0 3.0 0.00 0.00 0.00 92 1017.1
20260831090005 70 131 2.0 3.0 0.00 0.00 0.00 91 1017.2
20260831084501 70 124 0.0 1.0 0.00 0.00 0.00 91 1017.2
20260831083000 71 124 0.0 0.0 0.00 0.00 0.00 90 1017.1
20260831080004 71 144 1.0 2.0 0.00 0.00 0.00 91 1016.8
20260831074500 71 141 1.0 2.0 0.00 0.00 0.00 91 1016.5
20260831073000 71 150 1.0 1.0 0.00 0.00 0.00 91 1016.6
20260831071500 71 144 0.0 1.0 0.00 0.00 0.00 91 1016.8
20260831064502 71 129 2.0 2.0 0.00 0.00 0.00 90 1016.9
20260831063000 72 122 1.0 3.0 0.00 0.00 0.00 88 1017.0
20260831061502 72 130 0.0 2.0 0.00 0.00 0.00 88 1017.1
20260831060004 72 130 0.0 0.0 0.00 0.00 0.00 88 1017.3
20260831054501 72 130 0.0 0.0 0.00 0.00 0.00 87 1017.3
20260831053000 73 130 0.0 0.0 0.00 0.00 0.00 87 1017.5
20260831051500 73 120 2.0 3.0 0.00 0.00 0.00 87 1017.1
20260831050005 73 120 1.0 3.0 0.00 0.00 0.00 88 1017.0
20260831044502 73 148 0.0 0.0 0.00 0.00 0.00 87 1017.1
20260831043002 73 148 0.0 0.0 0.00 0.00 0.00 88 1017.2
20260831041502 73 148 0.0 1.0 0.00 0.00 0.00 88 1017.0
20260831040008 73 136 2.0 3.0 0.00 0.00 0.00 89 1016.9
20260831034504 73 136 2.0 3.0 0.00 0.00 0.00 89 1016.9
20260831033003 73 136 1.0 2.0 0.00 0.00 0.00 89 1017.0
20260831031503 73 125 2.0 3.0 0.00 0.00 0.00 90 1017.0
20260831030007 74 132 2.0 3.0 0.00 0.00 0.00 88 1017.0
20260831024503 74 145 0.0 0.0 0.00 0.00 0.00 87 1017.3
20260831023003 74 145 0.0 1.0 0.00 0.00 0.00 88 1017.2
20260831021502 74 145 0.0 0.0 0.00 0.00 0.00 89 1017.3
20260831014503 74 153 1.0 2.0 0.00 0.00 0.00 92 1017.3
20260831013003 75 283 0.0 0.0 0.00 0.00 0.00 90 1017.3
20260831011502 75 283 0.0 0.0 0.00 0.00 0.00 90 1017.1
20260831010006 75 283 0.0 0.0 0.00 0.00 0.00 90 1017.0
20260831004503 76 283 0.0 0.0 0.00 0.00 0.00 88 1016.8
20260831003002 77 283 0.0 0.0 0.00 0.00 0.00 88 1016.9
20260831001502 77 283 0.0 0.0 0.00 0.00 0.00 88 1016.7
20260831000006 78 283 1.0 1.0 0.00 0.00 0.00 88 1016.9
20260830234505 79 283 0.0 1.0 0.00 0.00 0.00 87 1017.0
20260830233003 79 283 1.0 1.0 0.00 0.00 0.00 85 1017.1
20260830230006 82 283 0.0 0.0 0.00 0.00 0.00 78 1017.3